Weather Roundup
Issued by NWS

Home | Current Version | Previous Version | Text Only | Print | Product List | Glossary On
Versions: 1 2 3 4 5 6 7 8 9 10 11 12 13 14 15 16 17 18 19 20 21 22 23 24 25 26 27 28 29 30 31 32 33 34 35 36 37 38 39 40 41 42 43 44 45 46 47 48 49 50
000
NZUS93 KARX 271210
HRRWXR

CURRENT HOURLY OBSERVATIONS ACROSS
MUCH OF THE UPPER MISSISSIPPI VALLEY
NATIONAL WEATHER SERVICE LA CROSSE WI
700 AM CDT MON JUL 27 2015


...SOUTHEAST MINNESOTA...


CITY           SKY/WX    TMP DP  RH WIND       PRES   REMARKS
ROCHESTER      MOSUNNY   67  66  97 SE7       30.00R FOG
ROCHESTER/MAYO FAIR      68  68 100 SE8       29.99R
WINONA         MOSUNNY   70  68  94 SE3       29.99R
AUSTIN         CLOUDY    70  68  94 CALM      29.98R FOG
ALBERT LEA     CLOUDY    72  70  94 SE7       29.97  FOG
DODGE CENTER   MOSUNNY   66  66 100 SE3       29.99R FOG
PRESTON        SUNNY     66  64  91 CALM      30.00R
OWATONNA       PTCLDY    70  66  88 SE8       29.97R
FARIBAULT      PTCLDY    70  66  88 S2        29.97R
$$

...ELSEWHERE IN MINNESOTA...


CITY           SKY/WX    TMP DP  RH WIND       PRES   REMARKS
MINNEAPOLIS    PTSUNNY   72  67  84 SE6       29.96R
INTNL FALLS    SUNNY     64  62  93 VRB3      29.96R
DULUTH         SUNNY     69  64  84 CALM      30.00R
RED WING       PTSUNNY   70  66  88 CALM      29.97R
REDWOOD FALLS  FOG       71  70  96 SE6       29.93R VSB 3/4
MANKATO        CLOUDY    72  68  88 SE10      29.95R VSB 1/4
WORTHINGTON    CLOUDY    70  66  88 SE5       29.94S
FAIRMONT       CLOUDY    72  64  78 SE6       29.94R VSB 1/2
$$

...SOUTHWEST WISCONSIN...


CITY           SKY/WX    TMP DP  RH WIND       PRES   REMARKS
LA CROSSE      MOSUNNY   67  64  90 SE7       29.98R
PRAIRIE DU CHI MOSUNNY   66  64  94 CALM      29.99R FOG
BOSCOBEL       CLOUDY    66  65  96 CALM      30.01R FOG
LONE ROCK      SUNNY     64  61  90 CALM      30.01R FOG
PLATTEVILLE    SUNNY     66  63  89 E7        30.00R
FORT MC COY    SUNNY     59  57  94 CALM      30.00R
CAMP DOUGLAS   PTSUNNY   57  57 100 SE3       30.01R
VIROQUA        FAIR      66  66 100 SE6       30.01R
WIS DELLS      SUNNY     61  59  93 CALM      30.02R
$$

...ELSEWHERE IN WISCONSIN...


CITY           SKY/WX    TMP DP  RH WIND       PRES   REMARKS
MILWAUKEE      MOSUNNY   70  63  78 CALM      30.02R
MADISON        MOSUNNY   64  60  87 NW3       30.01R
GREEN BAY      SUNNY     66  62  87 CALM      30.03S
EAU CLAIRE     MOSUNNY   65  62  90 NE5       29.99R
BLACK RVR FLS  FAIR      60  60 100 CALM      30.00R
MEDFORD        MOSUNNY   60  58  95 CALM      30.04R
WAUSAU         SUNNY     61  59  93 CALM      30.02F
WIS RAPIDS     SUNNY     61  58  90 E3        30.03R
MARSHFIELD     SUNNY     64  59  83 E5        30.03R
RICE LAKE      SUNNY     63  62  96 CALM      30.03R
$$

...NORTHEAST IOWA...


CITY           SKY/WX    TMP DP  RH WIND       PRES   REMARKS
DECORAH        NOT AVBL
MASON CITY     FOG       72  71  97 SE12      29.98R VSB 1/2
CHARLES CITY   CLOUDY    68  68 100 SE7       29.99R
OELWEIN        MOSUNNY   68  68 100 CALM      29.99R
$$

...ELSEWHERE IN IOWA...


CITY           SKY/WX    TMP DP  RH WIND       PRES   REMARKS
DES MOINES     MOCLDY    76  72  87 E6        29.93R
IOWA CITY      MOSUNNY   70  67  90 SE3       29.98R
FORT DODGE     CLOUDY    72  70  94 SE5       29.96R
$$

...NORTHERN ILLINOIS...


CITY           SKY/WX    TMP DP  RH WIND       PRES   REMARKS
CHICAGO-OHARE  PTSUNNY   71  68  90 NE3       29.98S
CHICAGO-MIDWAY MOSUNNY   75  70  84 E3        29.98R HAZE
MOLINE         PTSUNNY   70  66  87 E3        29.97R
ROCKFORD       MOSUNNY   68  61  78 E3        30.00S
PEORIA         FOG       73  70  90 E5        29.96R VSB 1/4
$$

NOTE: "FAIR" INDICATES FEW OR NO CLOUDS BELOW 12,000 FEET WITH NO
SIGNIFICANT WEATHER AND/OR OBSTRUCTIONS TO VISIBILITY. WIND
SPEEDS ARE IN MILES-PER-HOUR.



USA.gov is the U.S. government's official web portal to all federal, state and local government web resources and services.